This is the latest recevied weather packets stored in our database for station/object KA4YMY. If no packets are shown the sender has not sent any weather packets the latest 10 day(s).
| Time | Temp. | Humidity | Pressure | Rain* | Wind** | Luminosity | Snow |
|---|---|---|---|---|---|---|---|
| 1777848316 | 19.44° C | 37% | 1014.9 hPa | 0 mm | - | - | - |
| 1777847716 | 19.44° C | 36% | 1015 hPa | 0 mm | - | - | - |
| 1777847116 | 20° C | 35% | 1015 hPa | 0 mm | - | - | - |
| 1777846516 | 19.44° C | 37% | 1015.1 hPa | 0 mm | - | - | - |
| 1777845916 | 20° C | 39% | 1015.1 hPa | 0 mm | - | - | - |
| 1777845316 | 20° C | 40% | 1015.3 hPa | 0 mm | - | - | - |
| 1777844716 | 20° C | 38% | 1015.3 hPa | 0 mm | - | - | - |
| 1777844116 | 20° C | 38% | 1015.4 hPa | 0 mm | - | - | - |
| 1777843516 | 20° C | 38% | 1015.6 hPa | 0 mm | - | - | - |
| 1777842916 | 20° C | 38% | 1015.5 hPa | 0 mm | - | - | - |
| 1777842316 | 20° C | 38% | 1015.7 hPa | 0 mm | - | - | - |
| 1777841716 | 20° C | 36% | 1015.8 hPa | 0 mm | - | - | - |
| 1777841116 | 20° C | 37% | 1015.8 hPa | 0 mm | - | - | - |
| 1777840516 | 20° C | 36% | 1016.1 hPa | 0 mm | - | - | - |
| 1777839916 | 20° C | 38% | 1016.1 hPa | 0 mm | - | - | - |
| 1777839316 | 20° C | 38% | 1016.4 hPa | 0 mm | - | - | - |
| 1777838716 | 20° C | 40% | 1016.6 hPa | 0 mm | - | - | - |
| 1777838116 | 20° C | 37% | 1016.6 hPa | 0 mm | - | - | - |
| 1777837515 | 20° C | 41% | 1016.7 hPa | 0 mm | - | - | - |
| 1777836916 | 20.56° C | 37% | 1017 hPa | 0 mm | - | - | - |
| 1777836316 | 20.56° C | 34% | 1017.1 hPa | 0 mm | - | - | - |
| 1777835718 | 21.11° C | 35% | 1017.3 hPa | 0 mm | - | - | - |
| 1777835117 | 21.11° C | 38% | 1017.5 hPa | 0 mm | - | - | - |
| 1777834517 | 20.56° C | 38% | 1017.6 hPa | 0 mm | - | - | - |
| 1777833918 | 20° C | 39% | 1017.8 hPa | 0 mm | - | - | - |
* Rain latest hour (hover to see other rain measurements)
** Current wind speed in m/s (hover to see current wind gust speed)